This is the latest recevied weather packets stored in our database for station/object K1FFK-1. If no packets are shown the sender has not sent any weather packets the latest 1 day(s).
| Time | Temp. | Humidity | Pressure | Rain* | Wind** | Luminosity | Snow |
|---|---|---|---|---|---|---|---|
| 1777992694 | 16.11° C | 61% | 1014.7 hPa | 0 mm | 1.34 m/s, 189° | - | - |
| 1777992094 | 15.56° C | 63% | 1014.8 hPa | 0 mm | 1.79 m/s, 191° | - | - |
| 1777991494 | 15.56° C | 64% | 1014.6 hPa | 0 mm | 0.89 m/s, 175° | - | - |
| 1777990893 | 15° C | 64% | 1014.6 hPa | 0 mm | 0.89 m/s, 251° | - | - |
| 1777990293 | 15° C | 64% | 1014.6 hPa | 0 mm | 0.89 m/s, 251° | - | - |
| 1777989694 | 14.44° C | 66% | 1014.5 hPa | 0 mm | 2.24 m/s, 203° | - | - |
| 1777989094 | 13.89° C | 67% | 1014.5 hPa | 0 mm | 2.24 m/s, 188° | - | - |
| 1777988493 | 13.33° C | 69% | 1014.5 hPa | 0 mm | 1.79 m/s, 196° | - | - |
| 1777987893 | 13.33° C | 69% | 1014.5 hPa | 0 mm | 1.79 m/s, 196° | - | - |
| 1777987294 | 12.78° C | 69% | 1014.2 hPa | 0 mm | 2.24 m/s, 201° | - | - |
| 1777986839 | 12.78° C | 69% | 1014.2 hPa | 0 mm | 2.24 m/s, 201° | - | - |
| 1777986694 | 12.78° C | 69% | 1014.2 hPa | 0 mm | 2.24 m/s, 201° | - | - |
| 1777986093 | 12.22° C | 72% | 1014.2 hPa | 0 mm | 1.79 m/s, 212° | - | - |
| 1777985494 | 12.22° C | 72% | 1014.2 hPa | 0 mm | 1.79 m/s, 212° | - | - |
| 1777984894 | 12.22° C | 72% | 1013.8 hPa | 0 mm | 2.24 m/s, 201° | - | - |
| 1777984294 | 12.22° C | 72% | 1013.8 hPa | 0 mm | 2.24 m/s, 201° | - | - |
| 1777983693 | 12.22° C | 72% | 1013.9 hPa | 0 mm | 1.79 m/s, 196° | - | - |
| 1777983093 | 12.22° C | 72% | 1013.8 hPa | 0 mm | 2.24 m/s, 202° | - | - |
| 1777982494 | 11.67° C | 73% | 1013.7 hPa | 0 mm | 1.79 m/s, 187° | - | - |
| 1777981893 | 11.11° C | 73% | 1013.8 hPa | 0 mm | 1.79 m/s, 191° | - | - |
| 1777981295 | 10.56° C | 75% | 1013.5 hPa | 0 mm | 1.79 m/s, 206° | - | - |
| 1777980693 | 10.56° C | 75% | 1013.5 hPa | 0 mm | 2.24 m/s, 201° | - | - |
| 1777980094 | 10° C | 77% | 1013.4 hPa | 0 mm | 1.79 m/s, 187° | - | - |
| 1777979494 | 9.44° C | 78% | 1013.5 hPa | 0 mm | 1.34 m/s, 206° | - | - |
| 1777978893 | 9.44° C | 80% | 1013.5 hPa | 0 mm | 0.89 m/s, 227° | - | - |
* Rain latest hour (hover to see other rain measurements)
** Current wind speed in m/s (hover to see current wind gust speed)